Hourly Data Report for October 06, 2017

All times are specified in Local Standard Time (LST). Add 1 hour to adjust for Daylight Saving Time where and when it is observed.

BAKER LAKE A
NUNAVUT

64°17'56.000" N
96°04'40.000" W
18.60 m
2300503
71926
YBK

Download Data

Hourly Data (October 2017)
Hourly Data Report for October 6, 2017
Temp Definition
°C
Dew Point Temp Definition
°C
Rel Hum Definition
%
Wind Dir Definition
10's deg

Wind Spd Definition
km/h
Visibility Definition
km
Stn Press Definition
kPa
Hmdx Definition


Wind Chill Definition


Weather Definition


TIME
00:00 Legend Double Dagger -5.2 -6.9 88 35 22 24.1 99.86   -12 Mainly Clear
01:00 Legend Double Dagger -5.4 -7.3 87 36 25 24.1 99.84   -13 LegendNANA
02:00 Legend Double Dagger -5.9 -7.5 88 35 22 24.1 99.89   -13 LegendNANA
03:00 Legend Double Dagger -6.1 -7.5 90 35 18 24.1 99.92   -13 Mainly Clear
04:00 Legend Double Dagger -6.1 -7.2 92 31 17 24.1 99.94   -12 LegendNANA
05:00 Legend Double Dagger -6.3 -8.1 87 29 18 24.1 99.95   -13 LegendNANA
06:00 Legend Double Dagger -5.4 -7.0 89 33 14 32.2 99.95   -11 Cloudy
07:00 Legend Double Dagger -4.6 -6.8 85 2 17 32.2 99.93   -10 LegendNANA
08:00 Legend Double Dagger -4.5 -6.8 84 3 15 32.2 99.92   -10 LegendNANA
09:00 Legend Double Dagger -4.4 -6.1 88 1 19 32.2 99.94   -11 Mostly Cloudy
10:00 Legend Double Dagger -4.6 -6.2 88 1 15 32.2 99.96   -10 LegendNANA
11:00 Legend Double Dagger -4.2 -6.5 84 3 14 24.1 99.97   -9 LegendNANA
12:00 Legend Double Dagger -3.9 -7.2 78 5 15 24.1 99.98   -9 Mostly Cloudy
13:00 Legend Double Dagger -3.8 -5.7 87 2 8 24.1 99.99   -7 LegendNANA
14:00 Legend Double Dagger -2.8 -5.8 80 5 14 24.1 99.96   -8 LegendNANA
15:00 Legend Double Dagger -2.7 -5.6 81 4 10 32.2 99.97   -7 Mostly Cloudy
16:00 Legend Double Dagger -2.9 -5.2 85 6 10 32.2 99.98   -7 LegendNANA
17:00 Legend Double Dagger -3.1 -5.2 85 5 10 24.1 100.00   -7 LegendNANA
18:00 Legend Double Dagger -3.2 -5.1 87 5 7 24.1 100.04   -6 Cloudy
19:00 Legend Double Dagger -3.2 -5.2 86 5 15 24.1 100.04   -8 LegendNANA
20:00 Legend Double Dagger -5.1 -6.4 90 1 10 24.1 100.05   -9 LegendNANA
21:00 Legend Double Dagger -4.5 -6.0 89 1 12 24.1 100.06   -9 Mainly Clear
22:00 Legend Double Dagger -3.4 -5.4 86 4 17 24.1 100.04   -9 LegendNANA
23:00 Legend Double Dagger -4.0 -5.4 90 4 12 9.7 100.03   -9 Snow

Notes on Data Quality.

Legend

  • E = Estimated
  • M = Missing
  • NA = Not Available
  • ‡ = Partner data that is not subject to review by the National Climate Archives
Date modified: